Regional Weather Roundup
Issued by NWS

Home | Current Version | Previous Version | Graphics & Text | Print | Product List | Glossary On
Versions: 1 2 3 4 5 6 7 8 9 10 11 12 13 14 15 16 17 18 19 20 21 22 23 24 25 26 27 28
000
ASUS45 KSLC 241010
RWRUT

UTAH REGIONAL WEATHER ROUNDUP
NATIONAL WEATHER SERVICE SALT LAKE CITY UT
400 AM MDT THU MAY 24 2018

UTZ001>011-023>025-241100-

NORTHERN UTAH

CITY           SKY/WX    TMP DP  RH WIND       PRES   REMARKS
BRIGHAM CITY   CLEAR     54  46  76 CALM      30.05R
HILL AFB       CLEAR     55  41  60 E15       30.06R
LOGAN          CLEAR     49  44  83 CALM      30.05R
OGDEN          CLEAR     53  42  66 S9        30.04R
SALT LAKE CITY PTCLDY    57  45  62 SE8       30.03S
WENDOVER       PTCLDY    59  44  57 CALM      30.04R
HEBER CITY       N/A     39  37  93 CALM      30.13R
WEST JORDAN    CLEAR     53  43  69 CALM      30.06S

$$

UTZ011>015-024>027-241100-

CENTRAL/NORTHEAST UTAH

CITY           SKY/WX    TMP DP  RH WIND       PRES   REMARKS
PROVO AIRPORT  PTCLDY    55  43  63 S7        30.08R
MOAB/CANYONLAN CLEAR     55  29  36 CALM      30.04R
DELTA          CLEAR     46  41  81 CALM      30.08R
PRICE          PTCLDY    52  34  50 NE5       30.13R
ROOSEVELT      CLEAR     45  37  76 SW6       30.14R
VERNAL         PTCLDY    48  37  65 W8        30.12R

$$

UTZ013>016-019>022-027-241100-

SOUTHERN UTAH

CITY           SKY/WX    TMP DP  RH WIND       PRES   REMARKS
BRYCE CANYON   PTCLDY    34  25  69 W8        30.25R WCI  27
CEDAR CITY     CLEAR     46  30  53 N3        30.12R
MILFORD        CLEAR     46  36  68 S8        30.09R
ST GEORGE      SUNNY     66  29  24 E13       29.99R
HANKSVILLE     CLEAR     52  27  37 CALM      30.08R
BLANDING         N/A     50  20  30 W6        30.21R

$$

REGIONAL REPORTS     COLORADO/ARIZONA

CITY           SKY/WX    TMP DP  RH WIND       PRES   REMARKS
CRAIG, CO      CLEAR     35  33  92 CALM      30.17F
GRAND JUNCTION CLEAR     51  26  37 E7        30.09R
RIFLE, CO      CLEAR     47  29  49 E3        30.15R
MONTROSE, CO   CLEAR     48  23  37 SE8       30.16R
CORTEZ, CO     CLEAR     41  25  53 E5        30.17R
COLORADO CITY    N/A     45  32  61 SE3       30.14R
PAGE, AZ       NOT AVBL
GRAND CANYON   CLEAR     34  15  46 CALM      30.22S
KINGMAN, AZ    CLEAR     62  27  26 S6        30.02S
FLAGSTAFF, AZ  CLEAR     37  19  48 CALM      30.23S

$$

REGIONAL REPORTS    NEVADA/IDAHO/WYOMING

CITY           SKY/WX    TMP DP  RH WIND       PRES   REMARKS
LAS VEGAS, NV  CLEAR     74  34  23 S3        29.91R
ELY, NY        CLEAR     42  35  76 S10       30.13R
ELKO, NV       PTCLDY    51  44  77 CALM      30.07R
POCATELLO, ID  MOCLDY    49  45  86 SW3       30.04R
BURLEY, ID     CLEAR     57  48  72 NW5       30.00R
FORT BRIDGER,    N/A     46  37  70 W8        30.20S
EVANSTON, WY   CLEAR     47  39  74 S6        30.18R
ROCK SPRINGS,  PTCLDY    45  37  73 SW7       30.16R
KEMMERER, WY   CLEAR     43  36  75 CALM      30.19R

$$




USA.gov is the U.S. government's official web portal to all federal, state and local government web resources and services.